This demonstration page uses our WeatherBlox Daily Observations layout. Learn more.

Left ArrowRight Arrow

39.51506, -84.39828

Hourly Observations for August 30, 2021

Temp ( °F °C ) Dew Point ( °F °C ) Humidity (%) Winds ( mph kmh ) Pressure ( in mb ) Visibility ( mi km ) Precip ( " mm )
12:15 am 00:15 Clear 73 23 N/A N/A N N/A 30.03 1017 10 16 N/A
12:35 am 00:35 Clear 73 23 N/A N/A N N/A 30.03 1017 10 16 N/A
12:55 am 00:55 Partly Cloudy 73 23 N/A N/A N N/A 30.03 1017 10 16 N/A
1:15 am 01:15 Mostly Cloudy 73 23 N/A N/A N 13 20 30.05 1018 10 16 N/A
1:35 am 01:35 Cloudy 76 24.2 71 21.4 84 84 N 8 13 30.03 1017 10 16 N/A
1:55 am 01:55 Cloudy 75 23.8 70 21 84 84 NE 5 7 30.04 1017 10 16 N/A
2:15 am 02:15 Cloudy with Strong Thunderstorms 73 22.9 71 21.5 92 92 NNE 9 15 30.04 1017 5 8 0.01 0.25
2:35 am 02:35 Cloudy 72 22 71 21.6 98 98 NNE 12 19 30.04 1017 10 16 0.08 2.03
2:55 am 02:55 Cloudy with Thunderstorms 72 22.3 70 21.3 94 94 N 10 17 30.04 1017 10 16 0.13 3.30
3:15 am 03:15 Cloudy with Nearby Thunderstorms 71 21.9 70 21.3 96 96 NE 12 19 30.04 1017 10 16 0.01 0.25
3:35 am 03:35 Cloudy with Nearby Thunderstorms 71 21.8 71 21.6 99 99 NNE 5 7 30.04 1017 10 16 0.01 0.25
3:55 am 03:55 Cloudy with Light Rain 72 22 72 22 100 100 E 5 7 30.03 1017 10 16 0.01 0.25
4:15 am 04:15 Cloudy with Light Rain 72 22 N/A N/A ENE 6 9 30.03 1017 7 11 0.01 0.25
4:35 am 04:35 Mostly Cloudy 70 21 N/A N/A NE 7 11 30.02 1017 10 16 0.01 0.25
4:55 am 04:55 Mostly Cloudy 72 22 N/A N/A N N/A 30.02 1017 10 16 0.01 0.25
5:15 am 05:15 Cloudy 70 21 N/A N/A S 5 7 30.02 1017 10 16 N/A
5:35 am 05:35 Cloudy with Nearby Thunderstorms 70 21 N/A N/A S 3 6 30.02 1017 10 16 N/A
5:55 am 05:55 Cloudy with Nearby Thunderstorms 72 22 N/A N/A N N/A 30.03 1017 10 16 N/A
6:15 am 06:15 Cloudy 72 22 N/A N/A E 3 6 30.02 1017 10 16 N/A
6:35 am 06:35 Partly Cloudy 70 21 N/A N/A E 3 6 30.01 1016 10 16 N/A
6:55 am 06:55 Mostly Cloudy with Light Rain 70 21 N/A N/A N N/A 30.01 1016 10 16 N/A
7:15 am 07:15 Cloudy with Light Rain 70 21 N/A N/A SSW 7 11 30.00 1016 10 16 N/A
7:35 am 07:35 Cloudy 70 21 N/A N/A WSW 5 7 30.01 1016 10 16 N/A
7:55 am 07:55 Cloudy with Rain 70 21 N/A N/A W 7 11 30.02 1017 7 11 N/A
8:15 am 08:15 Mostly Cloudy 70 21 N/A N/A S 3 6 30.01 1016 10 16 N/A
8:35 am 08:35 Mostly Cloudy 72 22 N/A N/A WSW 5 7 30.03 1017 10 16 N/A
8:55 am 08:55 Mostly Cloudy 72 22 N/A N/A WNW 5 7 30.02 1017 10 16 N/A
9:15 am 09:15 Partly Cloudy with Light Rain 72 22 N/A N/A S 7 11 30.02 1017 10 16 N/A
9:35 am 09:35 Mostly Cloudy with Light Rain 72 22 N/A N/A SSW 8 13 30.02 1017 10 16 0.01 0.25
9:55 am 09:55 Mostly Cloudy with Light Rain 72 22 N/A N/A NW 5 7 30.01 1016 10 16 0.01 0.25
10:15 am 10:15 Mostly Cloudy with Light Rain 72 22 N/A N/A WSW 5 7 30.02 1017 7 11 N/A
10:35 am 10:35 Mostly Cloudy with Nearby Thunderstorms 72 22 N/A N/A SSE 5 7 30.00 1016 10 16 N/A
10:55 am 10:55 Sunny 72 22 N/A N/A S 7 11 30.00 1016 10 16 N/A
11:15 am 11:15 Sunny 73 23 N/A N/A SSW 7 11 30.01 1016 10 16 N/A
11:35 am 11:35 Partly Cloudy 74 23.3 73 22.8 97 97 SW 6 9 30.01 1016 10 16 N/A
11:55 am 11:55 Partly Cloudy 74 23.6 73 22.7 95 95 S 3 6 30.01 1016 10 16 N/A
12:15 pm 12:15 Partly Cloudy 75 23.9 72 22.3 91 91 W 3 6 30.00 1016 10 16 N/A
12:35 pm 12:35 Sunny 76 24.2 73 22.6 91 91 SW 6 9 29.98 1015 10 16 N/A
12:55 pm 12:55 Sunny with Nearby Thunderstorms 76 24.7 73 22.6 88 88 WSW 7 11 29.99 1016 10 16 N/A
1:15 pm 13:15 Sunny 78 25.8 74 23.2 86 86 WSW 9 15 29.98 1015 10 16 N/A
1:35 pm 13:35 Partly Cloudy 79 26 73 22.5 81 81 SW 8 13 29.97 1015 10 16 N/A
1:55 pm 13:55 Partly Cloudy 78 25.7 73 22.6 83 83 SSW 8 13 29.96 1015 10 16 N/A
2:15 pm 14:15 Sunny 78 25.4 73 22.8 86 86 SSW 7 11 29.95 1014 10 16 N/A
2:35 pm 14:35 Partly Cloudy 78 25.4 73 22.8 86 86 SW 7 11 29.94 1014 10 16 N/A
2:55 pm 14:55 Partly Cloudy 78 25.4 74 23.2 88 88 SSW 8 13 29.94 1014 10 16 N/A
3:15 pm 15:15 Partly Cloudy 78 25.3 74 23.2 88 88 SSW 8 13 29.93 1014 10 16 N/A
3:35 pm 15:35 Partly Cloudy 77 25.2 74 23.1 88 88 SSW 9 15 29.92 1013 10 16 N/A
3:55 pm 15:55 Partly Cloudy 77 25.2 73 22.8 87 87 SW 12 19 29.93 1014 10 16 N/A
4:15 pm 16:15 Mostly Cloudy 77 25.2 73 22.9 87 87 SW 9 15 29.92 1013 10 16 N/A
4:35 pm 16:35 Partly Cloudy 78 25.3 73 22.7 86 86 SW 8 13 29.92 1013 10 16 N/A
4:55 pm 16:55 Mostly Cloudy 78 25.5 73 22.6 84 84 SW 8 13 29.92 1013 10 16 N/A
5:15 pm 17:15 Mostly Cloudy 78 25.5 72 22.4 83 83 SW 9 15 29.91 1013 10 16 N/A
5:35 pm 17:35 Partly Cloudy 78 25.7 72 22.3 82 82 SW 9 15 29.90 1013 10 16 N/A
5:55 pm 17:55 Partly Cloudy 78 25.7 73 22.8 84 84 SW 8 13 29.89 1012 10 16 N/A
6:15 pm 18:15 Partly Cloudy 78 25.3 71 21.7 81 81 SW 6 9 29.89 1012 10 16 N/A
6:35 pm 18:35 Sunny 77 25.1 72 22.1 83 83 SW 6 9 29.89 1012 10 16 0.01 0.25
6:55 pm 18:55 Sunny 77 24.8 71 21.9 84 84 SSW 6 9 29.89 1012 10 16 0.01 0.25
7:15 pm 19:15 Sunny 76 24.5 71 21.5 83 83 SSW 7 11 29.88 1012 10 16 N/A
7:35 pm 19:35 Sunny 76 24.3 70 21.2 83 83 SW 6 9 29.89 1012 10 16 N/A
7:55 pm 19:55 Sunny 74 23.6 72 22 91 91 SW 6 9 29.90 1012 10 16 N/A
8:15 pm 20:15 Partly Cloudy 74 23.4 72 22.1 92 92 W 3 6 29.91 1013 10 16 N/A
8:35 pm 20:35 Mostly Cloudy 74 23.1 72 22.1 94 94 SSW 5 7 29.91 1013 10 16 N/A
8:55 pm 20:55 Mostly Cloudy 74 23.4 71 21.9 91 91 SSW 7 11 29.92 1013 10 16 N/A
9:15 pm 21:15 Partly Cloudy 74 23.5 71 21.6 89 89 SSW 5 7 29.92 1013 10 16 N/A
9:35 pm 21:35 Partly Cloudy 74 23.2 71 21.8 92 92 WSW 5 7 29.93 1013 10 16 N/A
9:55 pm 21:55 Mostly Cloudy 73 22.6 72 22.3 98 98 W 5 7 29.93 1013 10 16 N/A
10:15 pm 22:15 Cloudy 73 22.6 72 22.4 99 99 N N/A 29.93 1013 10 16 N/A
10:35 pm 22:35 Mostly Cloudy 73 22.6 72 22.3 98 98 WSW 3 6 29.92 1013 10 16 N/A
10:55 pm 22:55 Clear 72 22 N/A N/A WSW 3 6 29.91 1013 10 16 N/A
11:15 pm 23:15 Clear 72 22 N/A N/A WSW 5 7 29.90 1013 10 16 N/A
11:35 pm 23:35 Clear 72 22 N/A N/A N N/A 29.90 1013 10 16 N/A
11:55 pm 23:55 Clear 72 22 N/A N/A N N/A 29.90 1013 10 16 N/A

Powered by AerisWeather